Location: Vancouver
(49.2500°N, 123.1330°W)
Time: 04:56:21
(UTC-08:00)

Cosmos 676 Rocket - Visible Passes

Search period start: 13 February 2016 00:00
Search period end: 23 February 2016 00:00
Orbit: 756 x 784 km, 74.0° (Epoch: 12 February)

Date Brightness Start Highest point End Pass type
(mag) Time Alt. Az. Time Alt. Az. Time Alt. Az.
13 Feb 4.6 18:23:54 10° SW 18:29:00 59° WNW 18:34:09 10° NNE visible
13 Feb 6.7 20:09:55 10° WNW 20:12:18 13° NW 20:14:41 10° NNW visible
14 Feb 6.5 19:31:46 10° W 19:35:20 18° NW 19:38:54 10° N visible
15 Feb 6.0 18:54:08 10° WSW 18:58:27 26° NW 19:02:48 10° N visible
16 Feb 5.4 18:16:53 10° SW 18:21:42 38° WNW 18:26:33 10° N visible
17 Feb 6.7 19:26:00 10° WNW 19:28:20 13° NW 19:30:40 10° NNW visible
18 Feb 6.5 18:47:50 10° W 18:51:22 18° NW 18:54:55 10° N visible
19 Feb 6.1 18:10:12 10° WSW 18:14:29 26° NW 18:18:49 10° N visible
21 Feb 6.6 18:42:05 10° WNW 18:44:22 13° NW 18:46:40 10° NNW visible
